Home   Weather   Town of Tomah   Past weeks
Flag for USA

Past Weather in Town of Tomah, Wisconsin, USA — January 2018

Now
70 °F

Mostly cloudy.


Feels Like: 70 °F
Forecast: 74 / 58 °F
Wind: 3 mph from Southeast

Location: La Crosse Municipal Airport

Current Time: Sep 22, 2019 at 7:10:51 am

Latest Report: Sep 22, 2019 at 6:41 am


Visibility: 10 mi

Pressure: 29.82 "Hg

Humidity: 83%

Dew Point: 64 °F

Location of Town of TomahLocation

January 2018 Weather in Town of Tomah — Graph

°F

High & Low Weather Summary for January 2018

 TemperatureHumidityPressure
High49 °F (Jan 26, 2:53 pm)100% (Jan 10, 6:53 pm)30.89 "Hg (Jan 10, 6:53 pm)
Low-11 °F (Jan 1, 12:53 am)41% (Jan 31, 2:53 pm)29.50 "Hg (Jan 22, 12:16 pm)
Average20 °F74%30.18 "Hg
* Reported Jan 1 12:53 am — Jan 31 11:53 pm, Town of Tomah. Weather by CustomWeather, © 2019

Note: Actual official high and low records may vary slightly from our data, if they occured in-between our weather recording intervals... More about our weather records

Advertising

Town of Tomah Weather History for January 1, 2018

Scroll right to see more
 ConditionsComfort  
Time TempWeatherWind HumidityBarometerVisibility
12:53 am
Mon, Jan 1
-11 °FClear.7 mph67%30.84 "Hg10 mi
1:53 am-11 °FClear.No wind67%30.85 "Hg10 mi
2:53 am-11 °FClear.3 mph67%30.85 "Hg10 mi
3:53 am-11 °FClear.6 mph67%30.84 "Hg10 mi
4:53 am-11 °FClear.6 mph70%30.84 "Hg10 mi
5:53 amN/AClear.10 mphN/A30.85 "Hg10 mi
6:53 amN/AClear.14 mphN/A30.85 "Hg10 mi
7:53 amN/ASunny.10 mphN/A30.86 "Hg10 mi
8:53 am-8 °FSunny.12 mph67%30.87 "Hg10 mi
9:53 am-7 °FSunny.10 mph64%30.89 "Hg10 mi
10:53 am-5 °FSunny.9 mph62%30.88 "Hg10 mi
11:53 am-3 °FSunny.10 mph58%30.87 "Hg10 mi
12:53 pm0 °FSunny.8 mph57%30.84 "Hg10 mi
1:53 pm1 °FSunny.6 mph54%30.84 "Hg10 mi
2:53 pm3 °FSunny.7 mph51%30.82 "Hg10 mi
3:53 pm2 °FSunny.7 mph54%30.83 "Hg10 mi
4:53 pm-1 °FClear.8 mph59%30.84 "Hg10 mi
5:53 pm-2 °FClear.12 mph59%30.84 "Hg10 mi
6:53 pm-3 °FClear.7 mph61%30.84 "Hg10 mi
7:53 pm-4 °FClear.7 mph61%30.83 "Hg10 mi
8:53 pm-4 °FClear.7 mph61%30.82 "Hg10 mi
9:53 pm-6 °FClear.3 mph64%30.81 "Hg10 mi
10:53 pm-9 °FClear.7 mph74%30.80 "Hg10 mi
11:53 pm-8 °FClear.7 mph71%30.79 "Hg10 mi
Weather by CustomWeather, © 2019

See weather overview